TimeCDT,TemperatureF,Dew PointF,Humidity,Sea Level PressureIn,VisibilityMPH,Wind Direction,Wind SpeedMPH,Gust SpeedMPH,PrecipitationIn,Events,Conditions,WindDirDegrees,DateUTC
12:13 AM,66.2,62.6,88,29.70,5.0,South,4.6,-,N/A,,Clear,180,2013-06-27 05:13:00
12:33 AM,66.2,64.4,94,29.69,5.0,South,4.6,-,N/A,,Clear,180,2013-06-27 05:33:00
12:54 AM,66.2,62.6,88,29.69,5.0,Calm,Calm,-,N/A,,Clear,0,2013-06-27 05:54:00
1:13 AM,66.2,62.6,88,29.69,4.0,SSW,3.5,-,N/A,,Clear,200,2013-06-27 06:13:00
1:34 AM,66.2,62.6,88,29.68,5.0,SW,8.1,-,N/A,,Clear,230,2013-06-27 06:34:00
1:53 AM,66.2,62.6,88,29.68,5.0,SW,9.2,-,N/A,,Clear,220,2013-06-27 06:53:00
2:13 AM,64.4,60.8,88,29.68,4.0,SW,9.2,-,N/A,,Clear,220,2013-06-27 07:13:00
2:33 AM,64.4,60.8,88,29.68,4.0,SW,9.2,-,N/A,,Clear,220,2013-06-27 07:33:00
2:54 AM,64.4,60.8,88,29.68,4.0,SW,11.5,-,N/A,,Clear,230,2013-06-27 07:54:00
3:13 AM,64.4,60.8,88,29.67,3.0,SW,11.5,-,N/A,,Haze,230,2013-06-27 08:13:00
3:33 AM,64.4,59.0,83,29.67,2.5,WSW,11.5,-,N/A,,Haze,240,2013-06-27 08:33:00
3:54 AM,64.4,59.0,83,29.67,2.0,WSW,11.5,-,N/A,,Haze,240,2013-06-27 08:54:00
4:13 AM,64.4,59.0,83,29.67,2.0,WSW,11.5,-,N/A,,Haze,250,2013-06-27 09:13:00
4:33 AM,64.4,59.0,83,29.67,2.5,WSW,10.4,-,N/A,,Haze,250,2013-06-27 09:33:00
4:53 AM,64.4,59.0,83,29.67,2.5,WSW,9.2,-,N/A,,Haze,250,2013-06-27 09:53:00
5:13 AM,64.4,59.0,83,29.67,1.5,WSW,9.2,-,N/A,,Haze,250,2013-06-27 10:13:00
5:34 AM,64.4,59.0,83,29.68,1.0,West,9.2,-,N/A,,Haze,260,2013-06-27 10:34:00
5:53 AM,64.4,59.0,83,29.68,1.2,West,9.2,-,N/A,,Haze,260,2013-06-27 10:53:00
6:13 AM,64.4,59.0,83,29.68,1.5,West,6.9,-,N/A,,Haze,270,2013-06-27 11:13:00
6:34 AM,64.4,59.0,83,29.69,1.5,WNW,10.4,-,N/A,,Haze,290,2013-06-27 11:34:00
6:53 AM,64.4,59.0,83,29.69,1.8,West,9.2,-,N/A,,Haze,280,2013-06-27 11:53:00
7:13 AM,64.4,60.8,88,29.69,1.8,West,8.1,-,N/A,,Mist,280,2013-06-27 12:13:00
7:34 AM,64.4,60.8,88,29.70,1.8,WNW,10.4,-,N/A,,Mist,290,2013-06-27 12:34:00
7:53 AM,64.4,60.8,88,29.70,1.5,WNW,11.5,-,N/A,,Mostly Cloudy,300,2013-06-27 12:53:00
8:13 AM,64.4,60.8,88,29.70,1.8,NW,6.9,-,N/A,,Mostly Cloudy,310,2013-06-27 13:13:00
8:34 AM,66.2,60.8,83,29.70,2.0,WNW,8.1,-,N/A,,Haze,300,2013-06-27 13:34:00
8:53 AM,66.2,60.8,83,29.70,1.0,West,10.4,-,N/A,,Haze,280,2013-06-27 13:53:00
9:13 AM,68.0,60.8,78,29.70,1.0,West,8.1,-,N/A,,Haze,280,2013-06-27 14:13:00
9:34 AM,68.0,60.8,78,29.71,1.0,WNW,11.5,-,N/A,,Haze,290,2013-06-27 14:34:00
9:53 AM,69.8,59.0,68,29.71,0.5,West,11.5,-,N/A,,Haze,260,2013-06-27 14:53:00
10:13 AM,69.8,59.0,68,29.70,0.5,West,13.8,17.3,N/A,,Haze,280,2013-06-27 15:13:00
10:34 AM,69.8,59.0,68,29.70,0.5,West,10.4,17.3,N/A,,Haze,270,2013-06-27 15:34:00
10:53 AM,69.8,57.2,64,29.70,0.5,West,12.7,-,N/A,,Haze,280,2013-06-27 15:53:00
11:13 AM,71.6,57.2,60,29.70,0.2,West,13.8,19.6,N/A,,Haze,270,2013-06-27 16:13:00
11:34 AM,71.6,57.2,60,29.71,0.5,West,15.0,-,N/A,,Haze,280,2013-06-27 16:34:00
11:53 AM,71.6,57.2,60,29.71,0.2,West,13.8,19.6,N/A,,Haze,280,2013-06-27 16:53:00
12:13 PM,71.6,57.2,60,29.71,0.5,West,13.8,-,N/A,,Haze,270,2013-06-27 17:13:00
12:34 PM,71.6,57.2,60,29.71,0.5,West,13.8,18.4,N/A,,Haze,280,2013-06-27 17:34:00
12:53 PM,71.6,57.2,60,29.70,0.5,West,10.4,-,N/A,,Haze,280,2013-06-27 17:53:00
1:13 PM,73.4,57.2,57,29.70,0.5,West,10.4,-,N/A,,Haze,270,2013-06-27 18:13:00
1:34 PM,73.4,57.2,57,29.70,0.2,West,17.3,26.5,N/A,,Haze,260,2013-06-27 18:34:00
1:53 PM,73.4,57.2,57,29.70,0.2,West,16.1,21.9,N/A,,Haze,280,2013-06-27 18:53:00
2:13 PM,75.2,55.4,50,29.69,0.5,West,18.4,27.6,N/A,,Haze,270,2013-06-27 19:13:00
2:34 PM,75.2,57.2,53,29.69,0.5,West,12.7,21.9,N/A,,Haze,280,2013-06-27 19:34:00
2:53 PM,75.2,57.2,53,29.68,0.2,West,17.3,23.0,N/A,,Haze,260,2013-06-27 19:53:00
3:13 PM,75.2,57.2,53,29.69,0.5,WNW,16.1,21.9,N/A,,Haze,290,2013-06-27 20:13:00
3:34 PM,69.8,60.8,73,29.70,1.5,West,15.0,34.5,0.03,Rain,Rain,280,2013-06-27 20:34:00
3:53 PM,69.8,60.8,73,29.71,5.0,NW,18.4,25.3,0.03,,Haze,320,2013-06-27 20:53:00
4:13 PM,69.8,60.8,73,29.70,5.0,NW,12.7,-,N/A,,Haze,320,2013-06-27 21:13:00
4:34 PM,71.6,60.8,69,29.70,5.0,NW,15.0,-,N/A,Rain,Light Rain,310,2013-06-27 21:34:00
4:53 PM,68.0,62.6,83,29.71,1.2,NW,17.3,32.2,0.06,Rain,Heavy Rain,320,2013-06-27 21:53:00
5:13 PM,68.0,62.6,83,29.71,7.0,NW,18.4,24.2,N/A,,Scattered Clouds,310,2013-06-27 22:13:00
5:33 PM,68.0,62.6,83,29.72,2.5,WNW,21.9,28.8,0.03,Rain,Light Rain,290,2013-06-27 22:33:00
5:53 PM,66.2,62.6,88,29.72,5.0,WNW,23.0,27.6,0.04,Rain,Rain,290,2013-06-27 22:53:00
6:13 PM,66.2,62.6,88,29.72,10.0,WNW,18.4,-,0.01,Rain,Light Rain,290,2013-06-27 23:13:00
6:33 PM,66.2,62.6,88,29.72,10.0,WNW,23.0,-,0.01,,Mostly Cloudy,290,2013-06-27 23:33:00
6:53 PM,66.2,62.6,88,29.72,7.0,WNW,20.7,29.9,0.01,,Overcast,290,2013-06-27 23:53:00
7:13 PM,64.4,62.6,94,29.73,3.0,NW,17.3,23.0,0.02,Rain,Heavy Rain,310,2013-06-28 00:13:00
7:33 PM,66.2,60.8,83,29.74,10.0,WNW,23.0,26.5,0.02,,Overcast,300,2013-06-28 00:33:00
7:53 PM,66.2,60.8,83,29.75,10.0,WNW,19.6,26.5,0.02,,Overcast,300,2013-06-28 00:53:00
8:13 PM,66.2,60.8,83,29.75,10.0,WNW,18.4,24.2,N/A,,Overcast,300,2013-06-28 01:13:00
8:34 PM,66.2,60.8,83,29.74,10.0,WNW,18.4,27.6,N/A,,Mostly Cloudy,300,2013-06-28 01:34:00
8:53 PM,64.4,60.8,88,29.75,10.0,WNW,17.3,26.5,N/A,,Overcast,300,2013-06-28 01:53:00
9:13 PM,64.4,60.8,88,29.75,10.0,WNW,24.2,31.1,N/A,,Overcast,300,2013-06-28 02:13:00
9:34 PM,64.4,60.8,88,29.75,10.0,WNW,24.2,-,N/A,,Overcast,300,2013-06-28 02:34:00
9:53 PM,64.4,60.8,88,29.74,10.0,WNW,21.9,27.6,N/A,,Overcast,300,2013-06-28 02:53:00
10:13 PM,64.4,60.8,88,29.75,10.0,WNW,24.2,29.9,N/A,,Overcast,300,2013-06-28 03:13:00
10:34 PM,62.6,60.8,94,29.74,10.0,WNW,23.0,28.8,N/A,,Overcast,290,2013-06-28 03:34:00
10:53 PM,62.6,60.8,94,29.74,10.0,WNW,24.2,28.8,N/A,,Overcast,290,2013-06-28 03:53:00
11:13 PM,62.6,60.8,94,29.74,7.0,WNW,24.2,27.6,N/A,,Overcast,300,2013-06-28 04:13:00
11:34 PM,62.6,60.8,94,29.75,7.0,NW,20.7,26.5,N/A,Rain,Light Rain,310,2013-06-28 04:34:00
11:53 PM,62.6,60.8,94,29.74,5.0,WNW,21.9,25.3,N/A,Rain,Heavy Rain,300,2013-06-28 04:53:00